Location: Castelbiague
(43.0361°N, 0.9246°E)
Time: 11:23:51
(UTC+00:00)

deb Kosmos-886 - Visible Passes

Search period start: 17 August 2022 00:00
Search period end: 27 August 2022 00:00
Orbit: 601 x 1862 km, 65.8° (Epoch: 16 August)

Date Brightness Start Highest point End Pass type
(mag) Time Alt. Az. Time Alt. Az. Time Alt. Az.
17 Aug ? 04:02:08 10° N 04:05:38 22° NE 04:09:01 10° E visible
17 Aug ? 20:07:42 10° SSW 20:15:59 79° ESE 20:22:02 10° NE visible
17 Aug ? 22:04:04 10° W 22:09:40 24° NW 22:14:13 10° N visible
18 Aug ? 03:53:43 10° N 03:57:19 24° NE 04:00:47 10° E visible
18 Aug ? 19:59:23 10° SSW 20:07:38 83° ESE 20:13:40 10° NE visible
18 Aug ? 21:56:00 10° W 22:01:22 22° NW 22:05:46 10° N visible
19 Aug ? 03:45:17 10° NNW 03:48:59 26° NE 03:52:35 10° ESE visible
19 Aug ? 19:51:05 10° SSW 19:59:18 88° ESE 20:05:17 10° NNE visible
19 Aug ? 21:47:56 10° W 21:53:04 21° NW 21:57:19 10° N visible
20 Aug ? 03:36:52 10° NNW 03:40:39 28° NE 03:44:21 10° ESE visible
20 Aug ? 19:42:47 10° SSW 19:50:57 88° WNW 19:56:54 10° NNE visible
20 Aug ? 21:39:53 10° W 21:44:45 20° NW 21:48:50 10° N visible
21 Aug ? 03:28:27 10° NNW 03:32:19 30° NE 03:36:06 10° ESE visible
21 Aug ? 19:34:30 10° SSW 19:42:35 83° WNW 19:48:30 10° NNE visible
21 Aug ? 21:31:51 10° W 21:36:27 19° NW 21:40:21 10° N visible
22 Aug ? 03:20:02 10° NNW 03:23:59 32° NE 03:27:51 10° ESE visible
22 Aug ? 19:26:13 10° SW 19:34:14 78° WNW 19:40:07 10° NNE visible
22 Aug ? 21:23:49 10° W 21:28:10 18° NW 21:31:52 10° N visible
23 Aug ? 03:11:38 10° NNW 03:15:37 35° NE 03:19:35 10° ESE visible
23 Aug ? 19:17:57 10° SW 19:25:54 74° WNW 19:31:43 10° NNE visible
23 Aug ? 21:15:49 10° WNW 21:19:52 17° NW 21:23:22 10° N visible
24 Aug ? 03:03:13 10° NNW 03:07:16 38° NE 03:11:18 10° ESE visible
24 Aug ? 19:09:41 10° SW 19:17:32 70° WNW 19:23:19 10° NNE visible
24 Aug ? 21:07:48 10° WNW 21:11:34 16° NW 21:14:50 10° N visible
25 Aug ? 02:54:48 10° NNW 02:58:54 41° NE 03:03:00 10° ESE visible
25 Aug ? 19:01:25 10° SW 19:09:11 65° NW 19:14:54 10° NNE visible
25 Aug ? 20:59:49 10° WNW 21:03:16 15° NW 21:06:18 10° N visible
26 Aug ? 02:46:23 10° NNW 02:50:32 45° NE 02:54:42 10° SE visible
26 Aug ? 04:40:43 10° WNW 04:43:14 15° WSW 04:45:49 10° SW visible
26 Aug ? 20:51:52 10° WNW 20:54:59 14° NW 20:57:45 10° N visible
